This demonstration page uses our WeatherBlox Daily Observations layout. Learn more.

Left ArrowRight Arrow

Hourly Observations for July 3, 2020

Temp ( °F °C ) Dew Point ( °F °C ) Humidity (%) Winds ( mph kmh ) Pressure ( in mb ) Visibility ( mi km ) Precip ( " mm )
12:53 am 00:53 Clear 73 22.8 59 15 62 62 S 9 15 29.96 1015 10 16 0.00 0.00
1:53 am 01:53 Clear 72 22.2 60 15.6 66 66 NE 7 11 29.96 1015 10 16 0.00 0.00
2:53 am 02:53 Clear 69 20.6 63 17.2 81 81 NE 7 11 29.98 1015 10 16 0.00 0.00
3:53 am 03:53 Clear 69 20.6 63 17.2 81 81 NNW 9 15 30.06 1018 10 16 0.00 0.00
4:53 am 04:53 Clear 69 20.6 62 16.7 78 78 E 3 6 30.06 1018 10 16 0.00 0.00
5:53 am 05:53 Mostly Cloudy with Light Rain 69 20.6 64 17.8 84 84 N 6 9 30.08 1019 10 16 0.00 0.00
6:53 am 06:53 Mostly Sunny 71 21.7 65 18.3 81 81 NNE 13 20 30.06 1018 10 16 0.00 0.00
7:53 am 07:53 Sunny 71 21.7 64 17.8 79 79 NNE 8 13 30.06 1018 10 16 0.00 0.00
8:53 am 08:53 Sunny 72 22.2 64 17.8 76 76 E 6 9 30.06 1018 10 16 0.00 0.00
9:53 am 09:53 Sunny 78 25.6 66 18.9 67 67 Calm 30.04 1017 10 16 0.00 0.00
10:53 am 10:53 Sunny 81 27.2 66 18.9 61 61 Calm 30.04 1017 10 16 0.00 0.00
11:53 am 11:53 Sunny 83 28.3 67 19.4 59 59 ESE 10 17 30.06 1018 10 16 0.00 0.00
12:53 pm 12:53 Sunny 86 30 66 18.9 51 51 SE 7 11 30.04 1017 10 16 0.00 0.00
1:53 pm 13:53 Sunny 86 30 67 19.4 53 53 S 6 9 30.04 1017 10 16 0.00 0.00
2:53 pm 14:53 Mostly Cloudy 87 30.6 64 17.8 46 46 Calm 30.04 1017 10 16 0.00 0.00
3:53 pm 15:53 Mostly Cloudy 89 31.7 66 18.9 47 47 ESE 3 6 30.02 1017 10 16 0.00 0.00
4:53 pm 16:53 Sunny 89 31.7 65 18.3 45 45 SSW 5 7 30.01 1016 10 16 0.00 0.00
5:53 pm 17:53 Partly Cloudy 89 31.7 65 18.3 45 45 VRB 7 11 30.00 1016 10 16 0.00 0.00
6:53 pm 18:53 Sunny 88 31.1 66 18.9 48 48 ENE 6 9 29.99 1016 10 16 0.00 0.00
7:53 pm 19:53 Sunny 85 29.4 67 19.4 55 55 ESE 6 9 30.00 1016 10 16 0.00 0.00
8:53 pm 20:53 Sunny 81 27.2 68 20 65 65 ESE 8 13 29.99 1016 10 16 0.00 0.00
9:53 pm 21:53 Clear 79 26.1 68 20 69 69 SE 7 11 30.00 1016 10 16 0.00 0.00
10:53 pm 22:53 Clear 76 24.4 68 20 77 77 SSW 5 7 30.03 1017 10 16 0.00 0.00
11:53 pm 23:53 Clear 75 23.9 66 18.9 74 74 Calm 30.06 1018 10 16 0.00 0.00

Powered by AerisWeather